• In Netherlands
  • List of Countries
  • For 7 days
  • Water Temperature
  • Satellite Maps
  • Weather Map
  • Weather Widgets
  • user-avatar
    Login

    Hourly Weather La Massana

    Today, 26 March, Sunday

    Time Temperature Precipitation Wind Pressure Humidity
    00:00 -7°C° 0 mm 2 mps 606 mmHg 89%
    01:00 -7°C° 0 mm 2 mps 606 mmHg 90%
    02:00 -7°C° 0 mm 2 mps 606 mmHg 90%
    03:00 -7°C° 0 mm 2 mps 606 mmHg 90%
    04:00 -8°C° 0 mm 2 mps 606 mmHg 90%
    05:00 -8°C° 0 mm 2 mps 606 mmHg 90%
    06:00 -8°C° 0 mm 2 mps 605 mmHg 90%
    07:00 -5°C° 0 mm 2 mps 607 mmHg 88%
    08:00 -2°C° 0 mm 2 mps 609 mmHg 86%
    09:00 +3°C° 0 mm 1 mps 610 mmHg 84%
    10:00 +2°C° 0 mm 2 mps 611 mmHg 83%
    11:00 +3°C° 0 mm 2 mps 611 mmHg 81%
    12:00 +4°C° 0 mm 2 mps 611 mmHg 79%
    13:00 +4°C° 0 mm 2 mps 611 mmHg 78%
    14:00 +5°C° 0 mm 1 mps 611 mmHg 77%
    15:00 +5°C° 0 mm 1 mps 611 mmHg 76%
    16:00 +3°C° 0 mm 1 mps 609 mmHg 80%
    17:00 +1°C° 0 mm 1 mps 608 mmHg 84%
    18:00 -2°C° 0 mm 1 mps 607 mmHg 88%
    19:00 -3°C° 0 mm 1 mps 607 mmHg 84%
    20:00 -4°C° 0 mm 1 mps 607 mmHg 80%
    21:00 -7°C° 0 mm 2 mps 607 mmHg 76%
    22:00 -6°C° 0 mm 2 mps 607 mmHg 76%
    23:00 -6°C° 0 mm 2 mps 607 mmHg 77%

    Tomorrow, 27 March, Monday

    Time Temperature Precipitation Wind Pressure Humidity
    00:00 -6°C° 0 mm 2 mps 607 mmHg 77%
    01:00 -5°C° 0 mm 2 mps 607 mmHg 77%
    02:00 -5°C° 0 mm 2 mps 607 mmHg 78%
    03:00 -4°C° 0 mm 2 mps 607 mmHg 78%
    04:00 -4°C° 0 mm 2 mps 607 mmHg 79%
    05:00 -4°C° 0 mm 2 mps 607 mmHg 80%
    06:00 -4°C° 0 mm 2 mps 608 mmHg 81%
    07:00 -2°C° 0.1 mm 2 mps 609 mmHg 79%
    08:00 +1°C° 0.1 mm 2 mps 610 mmHg 77%
    09:00 +2°C° 0.1 mm 2 mps 611 mmHg 75%
    10:00 +3°C° 0.4 mm 2 mps 612 mmHg 76%
    11:00 +2°C° 0.4 mm 3 mps 612 mmHg 76%
    12:00 +2°C° 0.4 mm 3 mps 612 mmHg 76%
    13:00 +3°C° 0.1 mm 2 mps 612 mmHg 75%
    14:00 +4°C° 0.1 mm 2 mps 612 mmHg 73%
    15:00 +5°C° 0.1 mm 2 mps 612 mmHg 72%
    16:00 +3°C° 0 mm 2 mps 612 mmHg 77%
    17:00 +2°C° 0 mm 2 mps 611 mmHg 82%
    18:00 +1°C° 0 mm 1 mps 611 mmHg 87%
    19:00 0°C° 0 mm 1 mps 611 mmHg 88%
    20:00 -2°C° 0 mm 1 mps 611 mmHg 89%
    21:00 -3°C° 0 mm 1 mps 610 mmHg 90%
    22:00 -4°C° 0 mm 1 mps 610 mmHg 89%
    23:00 -4°C° 0 mm 1 mps 610 mmHg 87%

    Day after tomorrow, 28 March, Tuesday

    Time Temperature Precipitation Wind Pressure Humidity
    00:00 -4°C° 0 mm 1 mps 610 mmHg 86%
    01:00 -4°C° 0 mm 1 mps 610 mmHg 85%
    02:00 -6°C° 0 mm 1 mps 610 mmHg 83%
    03:00 -6°C° 0 mm 1 mps 610 mmHg 82%
    04:00 -6°C° 0 mm 1 mps 610 mmHg 82%
    05:00 -6°C° 0 mm 1 mps 610 mmHg 82%
    06:00 -6°C° 0 mm 1 mps 610 mmHg 81%
    07:00 -2°C° 0 mm 1 mps 612 mmHg 77%
    08:00 +2°C° 0 mm 1 mps 614 mmHg 73%
    09:00 +4°C° 0 mm 0 mps 616 mmHg 69%
    10:00 +6°C° 0 mm 1 mps 616 mmHg 68%
    11:00 +7°C° 0 mm 1 mps 616 mmHg 66%
    12:00 +8°C° 0 mm 1 mps 617 mmHg 65%
    13:00 +8°C° 0 mm 1 mps 616 mmHg 66%
    14:00 +8°C° 0 mm 1 mps 616 mmHg 66%
    15:00 +8°C° 0 mm 1 mps 616 mmHg 66%
    16:00 +6°C° 0 mm 1 mps 615 mmHg 73%
    17:00 +4°C° 0 mm 1 mps 614 mmHg 80%
    18:00 +2°C° 0 mm 1 mps 614 mmHg 87%
    19:00 +1°C° 0 mm 1 mps 613 mmHg 89%
    20:00 -1°C° 0 mm 1 mps 613 mmHg 92%
    21:00 -3°C° 0 mm 0 mps 613 mmHg 94%
    22:00 -4°C° 0 mm 0 mps 612 mmHg 93%
    23:00 -4°C° 0 mm 0 mps 612 mmHg 93%

    29 March, Wednesday

    Time Temperature Precipitation Wind Pressure Humidity
    00:00 -4°C° 0 mm 0 mps 612 mmHg 93%
    01:00 -4°C° 0 mm 0 mps 612 mmHg 92%
    02:00 -5°C° 0 mm 0 mps 611 mmHg 92%
    03:00 -5°C° 0 mm 0 mps 611 mmHg 91%
    04:00 -5°C° 0 mm 0 mps 611 mmHg 90%
    05:00 -5°C° 0 mm 0 mps 611 mmHg 89%
    06:00 -5°C° 0 mm 0 mps 611 mmHg 88%
    07:00 -1°C° 0 mm 0 mps 613 mmHg 79%
    08:00 +3°C° 0 mm 0 mps 615 mmHg 69%
    09:00 +7°C° 0 mm 0 mps 617 mmHg 60%
    10:00 +9°C° 0 mm 1 mps 617 mmHg 58%
    11:00 +10°C° 0 mm 1 mps 617 mmHg 56%
    12:00 +10°C° 0 mm 2 mps 618 mmHg 54%
    13:00 +10°C° 0 mm 2 mps 617 mmHg 55%
    14:00 +10°C° 0 mm 2 mps 617 mmHg 56%
    15:00 +10°C° 0 mm 2 mps 617 mmHg 56%
    16:00 +7°C° 0 mm 2 mps 615 mmHg 65%
    17:00 +6°C° 0 mm 1 mps 614 mmHg 73%
    18:00 +3°C° 0 mm 1 mps 613 mmHg 82%
    19:00 +2°C° 0 mm 1 mps 613 mmHg 83%
    20:00 +1°C° 0 mm 1 mps 613 mmHg 84%
    21:00 0°C° 0 mm 1 mps 613 mmHg 85%
    22:00 0°C° 0 mm 1 mps 612 mmHg 85%
    23:00 0°C° 0 mm 1 mps 612 mmHg 84%

    30 March, Thursday

    Time Temperature Precipitation Wind Pressure Humidity
    00:00 0°C° 0 mm 1 mps 612 mmHg 84%
    01:00 0°C° 0 mm 1 mps 612 mmHg 83%
    02:00 0°C° 0 mm 1 mps 612 mmHg 83%
    03:00 -1°C° 0 mm 1 mps 611 mmHg 82%
    04:00 -1°C° 0 mm 1 mps 611 mmHg 81%
    05:00 -1°C° 0 mm 1 mps 611 mmHg 80%
    06:00 -1°C° 0 mm 1 mps 611 mmHg 80%
    07:00 +3°C° 0 mm 1 mps 613 mmHg 73%
    08:00 +6°C° 0 mm 1 mps 614 mmHg 66%
    09:00 +9°C° 0 mm 1 mps 616 mmHg 59%
    10:00 +9°C° 0 mm 2 mps 616 mmHg 57%
    11:00 +10°C° 0 mm 2 mps 616 mmHg 56%
    12:00 +11°C° 0 mm 3 mps 616 mmHg 54%
    13:00 +11°C° 0 mm 3 mps 616 mmHg 55%
    14:00 +11°C° 0 mm 3 mps 616 mmHg 56%
    15:00 +11°C° 0 mm 3 mps 615 mmHg 57%
    16:00 +9°C° 0 mm 2 mps 614 mmHg 66%
    17:00 +6°C° 0 mm 2 mps 613 mmHg 75%
    18:00 +4°C° 0 mm 2 mps 612 mmHg 84%
    19:00 +3°C° 0 mm 2 mps 612 mmHg 86%
    20:00 +3°C° 0 mm 2 mps 612 mmHg 87%
    21:00 +2°C° 0 mm 2 mps 612 mmHg 88%
    22:00 +2°C° 0 mm 2 mps 612 mmHg 88%
    23:00 +2°C° 0 mm 2 mps 611 mmHg 87%

    31 March, Friday

    Time Temperature Precipitation Wind Pressure Humidity
    00:00 +1°C° 0 mm 2 mps 611 mmHg 87%
    01:00 +1°C° 0 mm 2 mps 611 mmHg 86%
    02:00 +1°C° 0 mm 2 mps 611 mmHg 85%
    03:00 +2°C° 0 mm 1 mps 610 mmHg 84%
    04:00 +2°C° 0 mm 1 mps 610 mmHg 84%
    05:00 +2°C° 0 mm 1 mps 610 mmHg 84%
    06:00 +2°C° 0 mm 1 mps 610 mmHg 84%
    07:00 +3°C° 0 mm 2 mps 611 mmHg 77%
    08:00 +5°C° 0 mm 2 mps 612 mmHg 70%
    09:00 +7°C° 0 mm 2 mps 613 mmHg 63%
    10:00 +8°C° 0.1 mm 3 mps 613 mmHg 62%
    11:00 +9°C° 0.1 mm 3 mps 613 mmHg 61%
    12:00 +8°C° 0.1 mm 4 mps 613 mmHg 61%
    13:00 +8°C° 1.1 mm 4 mps 612 mmHg 64%
    14:00 +8°C° 1.1 mm 3 mps 612 mmHg 68%
    15:00 +7°C° 1.1 mm 3 mps 611 mmHg 72%
    16:00 +5°C° 1.6 mm 3 mps 610 mmHg 78%
    17:00 +5°C° 1.6 mm 2 mps 610 mmHg 84%
    18:00 +4°C° 1.6 mm 1 mps 610 mmHg 91%
    19:00 +4°C° 0.6 mm 1 mps 610 mmHg 92%
    20:00 +3°C° 0.6 mm 1 mps 610 mmHg 93%
    21:00 +2°C° 0.6 mm 1 mps 610 mmHg 95%
    22:00 +1°C° 0.1 mm 1 mps 609 mmHg 95%
    23:00 +1°C° 0.1 mm 1 mps 609 mmHg 95%
    Show more